• In Russia
  • List of Countries
  • For 7 days
  • Water Temperature
  • Weather Map
  • Weather Widgets
  • user-avatar
    Login

    Hourly Weather Aracaju

    Today, 31 May, Sunday

    Time Temperature Precipitation Wind Pressure Humidity
    00:00 +26°C° 0.1 mm 4 mps 760 mmHg 85%
    01:00 +26°C° 0.1 mm 4 mps 760 mmHg 86%
    02:00 +26°C° 0.1 mm 4 mps 760 mmHg 86%
    03:00 +26°C° 0.1 mm 4 mps 760 mmHg 87%
    04:00 +26°C° 0.1 mm 4 mps 759 mmHg 87%
    05:00 +26°C° 0.2 mm 4 mps 760 mmHg 88%
    06:00 +26°C° 0.2 mm 4 mps 760 mmHg 89%
    07:00 +25°C° 0.2 mm 4 mps 760 mmHg 90%
    08:00 +26°C° 0.5 mm 4 mps 760 mmHg 87%
    09:00 +27°C° 0.5 mm 5 mps 760 mmHg 84%
    10:00 +28°C° 0.5 mm 5 mps 761 mmHg 81%
    11:00 +29°C° 0.5 mm 6 mps 760 mmHg 80%
    12:00 +29°C° 0.5 mm 6 mps 760 mmHg 79%
    13:00 +29°C° 0.5 mm 6 mps 760 mmHg 78%
    14:00 +29°C° 0.3 mm 6 mps 759 mmHg 78%
    15:00 +29°C° 0.3 mm 6 mps 759 mmHg 78%
    16:00 +29°C° 0.3 mm 6 mps 759 mmHg 78%
    17:00 +28°C° 0.4 mm 6 mps 759 mmHg 82%
    18:00 +27°C° 0.4 mm 5 mps 759 mmHg 85%
    19:00 +27°C° 0.4 mm 5 mps 760 mmHg 88%
    20:00 +26°C° 0.2 mm 4 mps 760 mmHg 89%
    21:00 +26°C° 0.2 mm 3 mps 760 mmHg 89%
    22:00 +26°C° 0.2 mm 3 mps 760 mmHg 90%
    23:00 +26°C° 0.3 mm 2 mps 760 mmHg 90%

    Tomorrow, 1 June, Monday

    Time Temperature Precipitation Wind Pressure Humidity
    00:00 +26°C° 0.3 mm 2 mps 760 mmHg 90%
    01:00 +26°C° 0.3 mm 1 mps 760 mmHg 90%
    02:00 +26°C° 0 mm 1 mps 759 mmHg 90%
    03:00 +26°C° 0 mm 1 mps 759 mmHg 90%
    04:00 +25°C° 0 mm 1 mps 759 mmHg 91%
    05:00 +25°C° 0 mm 1 mps 759 mmHg 92%
    06:00 +25°C° 0 mm 1 mps 759 mmHg 93%
    07:00 +25°C° 0 mm 2 mps 760 mmHg 94%
    08:00 +26°C° 0.1 mm 2 mps 760 mmHg 90%
    09:00 +27°C° 0.1 mm 2 mps 760 mmHg 86%
    10:00 +28°C° 0.1 mm 2 mps 760 mmHg 83%
    11:00 +29°C° 0.5 mm 2 mps 760 mmHg 79%
    12:00 +30°C° 0.5 mm 2 mps 760 mmHg 76%
    13:00 +30°C° 0.5 mm 2 mps 759 mmHg 73%
    14:00 +30°C° 0.6 mm 2 mps 759 mmHg 75%
    15:00 +30°C° 0.6 mm 3 mps 759 mmHg 76%
    16:00 +29°C° 0.6 mm 3 mps 758 mmHg 77%
    17:00 +29°C° 0.1 mm 3 mps 758 mmHg 79%
    18:00 +28°C° 0.1 mm 2 mps 759 mmHg 82%
    19:00 +27°C° 0.1 mm 2 mps 759 mmHg 84%
    20:00 +27°C° 0.4 mm 2 mps 759 mmHg 85%
    21:00 +27°C° 0.4 mm 2 mps 760 mmHg 87%
    22:00 +26°C° 0.4 mm 2 mps 760 mmHg 88%
    23:00 +26°C° 0.5 mm 2 mps 760 mmHg 89%

    Day after tomorrow, 2 June, Tuesday

    Time Temperature Precipitation Wind Pressure Humidity
    00:00 +26°C° 0.5 mm 2 mps 760 mmHg 89%
    01:00 +26°C° 0.5 mm 2 mps 760 mmHg 90%
    02:00 +26°C° 0.2 mm 2 mps 759 mmHg 91%
    03:00 +26°C° 0.2 mm 2 mps 759 mmHg 91%
    04:00 +26°C° 0.2 mm 1 mps 759 mmHg 91%
    05:00 +25°C° 0.4 mm 2 mps 759 mmHg 92%
    06:00 +25°C° 0.4 mm 2 mps 759 mmHg 93%
    07:00 +25°C° 0.4 mm 2 mps 759 mmHg 93%
    08:00 +26°C° 0.6 mm 2 mps 760 mmHg 90%
    09:00 +28°C° 0.6 mm 2 mps 760 mmHg 86%
    10:00 +29°C° 0.6 mm 2 mps 760 mmHg 83%
    11:00 +29°C° 0.5 mm 2 mps 760 mmHg 79%
    12:00 +30°C° 0.5 mm 2 mps 760 mmHg 75%
    13:00 +31°C° 0.5 mm 2 mps 759 mmHg 71%
    14:00 +30°C° 1.1 mm 3 mps 759 mmHg 75%
    15:00 +29°C° 1.1 mm 3 mps 759 mmHg 79%
    16:00 +29°C° 1.1 mm 4 mps 758 mmHg 84%
    17:00 +28°C° 1 mm 4 mps 759 mmHg 86%
    18:00 +28°C° 1 mm 4 mps 759 mmHg 88%
    19:00 +27°C° 1 mm 4 mps 759 mmHg 90%
    20:00 +27°C° 0.1 mm 3 mps 759 mmHg 90%
    21:00 +27°C° 0.1 mm 3 mps 760 mmHg 90%
    22:00 +27°C° 0.1 mm 3 mps 760 mmHg 90%
    23:00 +27°C° 0.2 mm 2 mps 760 mmHg 90%

    3 June, Wednesday

    Time Temperature Precipitation Wind Pressure Humidity
    00:00 +27°C° 0.2 mm 2 mps 759 mmHg 90%
    01:00 +26°C° 0.2 mm 2 mps 759 mmHg 90%
    02:00 +26°C° 0.4 mm 2 mps 759 mmHg 91%
    03:00 +26°C° 0.4 mm 2 mps 759 mmHg 91%
    04:00 +26°C° 0.4 mm 1 mps 759 mmHg 91%
    05:00 +26°C° 0.4 mm 1 mps 759 mmHg 91%
    06:00 +26°C° 0.4 mm 1 mps 759 mmHg 92%
    07:00 +26°C° 0.4 mm 1 mps 760 mmHg 92%
    08:00 +27°C° 0.5 mm 1 mps 760 mmHg 89%
    09:00 +28°C° 0.5 mm 1 mps 760 mmHg 86%
    10:00 +29°C° 0.5 mm 1 mps 761 mmHg 82%
    11:00 +29°C° 0.4 mm 2 mps 760 mmHg 80%
    12:00 +30°C° 0.4 mm 2 mps 760 mmHg 77%
    13:00 +30°C° 0.4 mm 3 mps 760 mmHg 75%
    14:00 +30°C° 0.3 mm 3 mps 759 mmHg 77%
    15:00 +30°C° 0.3 mm 3 mps 759 mmHg 78%
    16:00 +29°C° 0.3 mm 3 mps 758 mmHg 80%
    17:00 +29°C° 0.5 mm 3 mps 759 mmHg 83%
    18:00 +28°C° 0.5 mm 3 mps 759 mmHg 86%
    19:00 +27°C° 0.5 mm 3 mps 759 mmHg 90%
    20:00 +27°C° 0.3 mm 4 mps 760 mmHg 90%
    21:00 +27°C° 0.3 mm 4 mps 760 mmHg 90%
    22:00 +27°C° 0.3 mm 4 mps 760 mmHg 90%
    23:00 +27°C° 0.6 mm 3 mps 760 mmHg 91%

    4 June, Thursday

    Time Temperature Precipitation Wind Pressure Humidity
    00:00 +27°C° 0.6 mm 3 mps 760 mmHg 91%
    01:00 +27°C° 0.6 mm 3 mps 760 mmHg 91%
    02:00 +27°C° 0.9 mm 3 mps 760 mmHg 91%
    03:00 +26°C° 0.9 mm 3 mps 759 mmHg 91%
    04:00 +26°C° 0.9 mm 4 mps 759 mmHg 91%
    05:00 +26°C° 0.6 mm 4 mps 759 mmHg 91%
    06:00 +27°C° 0.6 mm 4 mps 759 mmHg 90%
    07:00 +27°C° 0.6 mm 4 mps 760 mmHg 90%
    08:00 +27°C° 0.2 mm 5 mps 760 mmHg 87%
    09:00 +28°C° 0.2 mm 5 mps 760 mmHg 84%
    10:00 +29°C° 0.2 mm 6 mps 761 mmHg 81%
    11:00 +29°C° 0 mm 6 mps 760 mmHg 77%
    12:00 +30°C° 0 mm 6 mps 760 mmHg 74%
    13:00 +30°C° 0 mm 6 mps 760 mmHg 71%
    14:00 +30°C° 0 mm 6 mps 760 mmHg 72%
    15:00 +29°C° 0 mm 6 mps 759 mmHg 73%
    16:00 +29°C° 0 mm 6 mps 759 mmHg 74%
    17:00 +28°C° 0 mm 5 mps 760 mmHg 76%
    18:00 +27°C° 0 mm 5 mps 760 mmHg 79%
    19:00 +27°C° 0 mm 4 mps 760 mmHg 81%
    20:00 +27°C° 0 mm 4 mps 760 mmHg 81%
    21:00 +27°C° 0 mm 4 mps 761 mmHg 81%
    22:00 +27°C° 0 mm 4 mps 761 mmHg 82%
    23:00 +27°C° 0.1 mm 4 mps 761 mmHg 82%

    5 June, Friday

    Time Temperature Precipitation Wind Pressure Humidity
    00:00 +26°C° 0.1 mm 5 mps 761 mmHg 83%
    01:00 +26°C° 0.1 mm 5 mps 761 mmHg 83%
    02:00 +26°C° 0 mm 4 mps 760 mmHg 83%
    03:00 +26°C° 0 mm 4 mps 760 mmHg 83%
    04:00 +26°C° 0 mm 4 mps 760 mmHg 84%
    05:00 +26°C° 0.1 mm 4 mps 760 mmHg 84%
    06:00 +26°C° 0.1 mm 4 mps 760 mmHg 84%
    07:00 +26°C° 0.1 mm 5 mps 760 mmHg 84%
    08:00 +27°C° 0.3 mm 5 mps 761 mmHg 82%
    09:00 +28°C° 0.3 mm 5 mps 761 mmHg 80%
    10:00 +28°C° 0.3 mm 6 mps 761 mmHg 78%
    11:00 +29°C° 0.3 mm 6 mps 761 mmHg 75%
    12:00 +29°C° 0.3 mm 6 mps 761 mmHg 73%
    13:00 +30°C° 0.3 mm 6 mps 761 mmHg 71%
    14:00 +30°C° 0 mm 6 mps 760 mmHg 71%
    15:00 +29°C° 0 mm 5 mps 760 mmHg 72%
    16:00 +29°C° 0 mm 5 mps 760 mmHg 72%
    17:00 +29°C° 0 mm 5 mps 760 mmHg 75%
    18:00 +28°C° 0 mm 4 mps 760 mmHg 78%
    19:00 +27°C° 0 mm 4 mps 761 mmHg 81%
    20:00 +27°C° 0 mm 4 mps 761 mmHg 82%
    21:00 +27°C° 0 mm 3 mps 761 mmHg 83%
    22:00 +26°C° 0 mm 3 mps 761 mmHg 84%
    23:00 +26°C° 0.1 mm 3 mps 761 mmHg 85%
    Show more